This is the latest recevied weather packets stored in our database for station/object W4TJP. If no packets are shown the sender has not sent any weather packets the latest 10 day(s).
| Time | Temp. | Humidity | Pressure | Rain* | Wind** | Luminosity | Snow |
|---|---|---|---|---|---|---|---|
| 1777989196 | 18.33° C | 65% | 1013.6 hPa | 0 mm | - | 204 W/m² | - |
| 1777988892 | 18.89° C | 65% | 1013.3 hPa | 0 mm | - | 219 W/m² | - |
| 1777988589 | 18.33° C | 65% | 1013.1 hPa | 0 mm | - | 233 W/m² | - |
| 1777988286 | 18.33° C | 67% | 1013.2 hPa | 0 mm | - | 238 W/m² | - |
| 1777987982 | 17.78° C | 66% | 1013.2 hPa | 0 mm | - | 214 W/m² | - |
| 1777987678 | 18.33° C | 66% | 1013.3 hPa | 0 mm | - | 188 W/m² | - |
| 1777987376 | 17.78° C | 69% | 1013.3 hPa | 0 mm | - | 190 W/m² | - |
| 1777987073 | 17.78° C | 67% | 1013.5 hPa | 0 mm | - | 212 W/m² | - |
| 1777986770 | 17.78° C | 68% | 1013.6 hPa | 0 mm | - | 206 W/m² | - |
| 1777986467 | 17.22° C | 70% | 1013.4 hPa | 0 mm | - | 210 W/m² | - |
| 1777986166 | 16.67° C | 70% | 1013.5 hPa | 0 mm | - | 192 W/m² | - |
| 1777985863 | 16.11° C | 71% | 1013.7 hPa | 0 mm | - | 194 W/m² | - |
| 1777985560 | 15° C | 75% | 1013.5 hPa | 0 mm | - | 161 W/m² | - |
| 1777985257 | 15° C | 75% | 1013.5 hPa | 0 mm | - | 115 W/m² | - |
| 1777984953 | 14.44° C | 84% | 1013.7 hPa | 0 mm | - | 117 W/m² | - |
| 1777984649 | 13.89° C | 88% | 1013.3 hPa | 0 mm | - | 94 W/m² | - |
| 1777984346 | 12.78° C | 91% | 1013.4 hPa | 0 mm | - | 85 W/m² | - |
| 1777984042 | 12.78° C | 91% | 1013.6 hPa | 0 mm | - | 74 W/m² | - |
| 1777983740 | 11.67° C | 92% | 1013.3 hPa | 0 mm | - | 66 W/m² | - |
| 1777983436 | 11.67° C | 94% | 1013.4 hPa | 0 mm | - | 59 W/m² | - |
| 1777983133 | 11.11° C | 95% | 1013.4 hPa | 0 mm | - | 55 W/m² | - |
| 1777982829 | 10.56° C | 95% | 1013.3 hPa | 0 mm | - | 51 W/m² | - |
| 1777982526 | 10° C | 97% | 1013.1 hPa | 0 mm | - | 49 W/m² | - |
| 1777982225 | 10° C | 99% | 1013.2 hPa | 0 mm | - | 43 W/m² | - |
| 1777981923 | 9.44° C | 99% | 1013.2 hPa | 0 mm | - | 38 W/m² | - |
* Rain latest hour (hover to see other rain measurements)
** Current wind speed in m/s (hover to see current wind gust speed)